PERSEUS-M2

Last updated on Mon Oct 20 2025 00:03:48 GMT+0000 (Coordinated Universal Time)

1 40037U 14033AD 25292.31383282 .00005147 00000+0 48352-3 0 9996 2 40037 97.9657 233.5864 0012799 25.7675 334.4179 14.94327792614796
UTC large
Height (km)
Speed (km/s)
/
Latitude / Longitude
Inclination (degrees)
Orbital Period (minutes)
Azimuth
Elevation
Range (km)
Doppler Factor

Next 0 passes for location: London (51.5072 / 0.1276)

Sorry there are no passes over London.